P/2014 R5 ( Lemmon-PanSTARRS )

Japanese version
Home page
Updated on June 11, 2016

---------------------------------------------------------------------

* Profile

Discovery Date September 14 and 19, 2014
Magnitude 19.1 mag and 20.5 mag
Discoverer Mt. Lemmon Survey, Pan-STARRS 1 telescope (Haleakala)

* Pictures

* Orbital Elements

Epoch 2014 July 2.0 TT = JDT 2456840.5
T 2014 June 17.49430 TT                                 MPCW
q   2.3862050            (2000.0)            P               Q
n   0.12028094     Peri.  213.85307     +0.94192693     +0.33547105
a   4.0644787      Node   126.53843     -0.30374567     +0.87046700
e   0.4129124      Incl.    1.08820     -0.14322090     +0.36020324
P   8.19
From 100 observations 2014 Sept. 7-Nov. 18, mean residual 0".5.

* Magnitudes Graph

        m1 = 14.0 + 5 log d + 10.0 log r

---------------------------------------------------------------------

The orbital elements are published on M.P.E.C. 2014-Y44.
The magnitudes graphs are made with Comet for Windows.

---------------------------------------------------------------------

Copyright(C) Seiichi Yoshida (comet@aerith.net). All rights reserved.